Showing default

QIANFAN-46, 62247

Orbit data source: Space-Track

QIANFAN-46, 62247 is a Chinese payload satellite in LEO that was launched on Thu, 05 Dec 2024 UTC via a CHANG ZHENG 6A launch vehicle from the Taiyaun Space Center, China (TSC). Payload-class satellites include a variety of spacecraft equipped with specific instruments for various scientific and technological missions. These include communications satellites like Starlink; space stations such as the ISS; scientific satellites like the Hubble; Earth observation satellites from companies like Planet Labs, Umbra, and HawkEye 360; GPS; miniature CubeSats for education and research; and military/defense satellites.

Loading next visibility...
Identifier
62247, 2024-232L
Orbit
LEO
Country
Flag of CNCN / PRC
Related business
Manufacturer
SECM
Mission
Operational Commercial Communications
Bus & Motor
QIANFAN, Unknown motor
Mass
267 kg wet, ~267 kg dry
Launch date (UTC)
2024-12-05 (2 years ago)
Launch vehicle
CHANG ZHENG 6A
Launch site
Taiyaun Space Center, China (TSC)
Object type
Payload
Rocket body
Debris
Shape & HBR
Box + 1 Pan, 5.0 m
Radar Cross Section
13.200 m², Large (>1 m²)

Expand to show TLE details & history
Last TLE update: 11 hours ago

TLE from 11 hours ago
0 QIANFAN-46
1 62247U 24232L   26246.73482234  .00000068  00000-0  86994-4 0  9991
2 62247  89.0143  14.6870 0015691 147.8120 212.3993 13.51027412134990
Epoch: 2026-09-03T17:38Z
TLE epoch observation values (Epoch: 2026-09-03T17:38:08.650Z)
Latitude
0.00007°
Longitude
127.28222°
Altitude
1,081.307 km
Speed
7.307 km/s
True Right ascension
00h 58m 44s
True Declination
0° 00' 00"
Sunlit
Object was in full shadow at epoch
Visualization orbit readout
Latitude
Unknown
Longitude
Unknown
Altitude
Unknown
Speed
Unknown
Apparent Right ascension
Unknown
Apparent Declination
Unknown
Sunlit
N/A
Visualization observer readout
Local Sidereal Time
20:52:56
Azimuth
Unknown
Elevation
Unknown
Doppler factor
Unknown
Orbital elements
Apogee altitude
1,077.212 km
Perigee altitude
1,053.852 km
Semi-major axis
7,443.669 km
Eccentricity
0.00157
Inclination
89.0143°
RAAN
14.687°
Arg. of periapsis
147.812°
True anomaly
212.30312°
Mean anomaly
212.3993°
Eccentric anomaly
212.35119°
Mean motion
3.37958 °/min
Orbital period
106.52 mins
BSTAR
0.000086994
Loading maneuver chart data...
Computing Atmospheric mass density...
Loading historical data...
Loading historical data...
Loading historical data...
Loading historical data...
Loading historical data...
Loading historical data...
Loading historical data...

Documentation

Showing up to 5 results
|